FENGYUN 1C DEB, 30131

Orbit data source: Space-Track

FENGYUN 1C DEB, 30131 is space debris in SSO originally from a launch on Mon, 10 May 1999 UTC launched from the Taiyaun Space Center, China (TSC). Fengyun 1C debris stems from the Chinese weather satellite Fengyun-1C, which was intentionally destroyed by a Chinese anti-satellite missile in 2007. This event dramatically increased the amount of space debris, with thousands of trackable fragments posing hazards to satellites and human spaceflight. The Fengyun 1C debris cloud has become a focal point in discussions about space sustainability and the need for international regulations to prevent the creation of new debris.

Loading next visibility...
Identifier
30131, 1999-025SL
Orbit
SSO
Country
Flag of CNCN / PRC
Related business
Manufacturer
Unknown
Mission
Spacecraft
Bus & Motor
Unknown
Mass
Unknown
Launch date (UTC)
1999-05-10 (27 years ago)
Launch vehicle
Unknown
Launch site
Taiyaun Space Center, China (TSC)
Object type
Payload
Rocket body
Debris
Shape & HBR
Unknown shape, 0.1 m
Radar Cross Section
Small (<0.1 m²)

Expand to show TLE details & history
Last TLE update: 1 day ago

TLE from 1 day ago
0 FENGYUN 1C DEB
1 30131U 99025SL  26106.19511962  .00002867  00000-0  12598-2 0  9992
2 30131  99.0702 206.5377 0082956 162.0520 259.2336 14.22529609984576
Epoch: 2026-04-16T04:40Z
TLE epoch observation values (Epoch: 2026-04-16T04:40:58.335Z)
Latitude
59.21588°
Longitude
-83.51075°
Altitude
838.432 km
Speed
7.433 km/s
True Right ascension
12h 44m 18s
True Declination
59° 03' 58"
Sunlit
Object was in daylight at epoch
Visualization orbit readout
Latitude
Unknown
Longitude
Unknown
Altitude
Unknown
Speed
Unknown
Apparent Right ascension
Unknown
Apparent Declination
Unknown
Sunlit
N/A
Visualization observer readout
Local Sidereal Time
11:50:17
Azimuth
Unknown
Elevation
Unknown
Doppler factor
Unknown
Orbital elements
Apogee altitude
873.646 km
Perigee altitude
754.32 km
Semi-major axis
7,192.12 km
Eccentricity
0.0083
Inclination
99.0702°
RAAN
206.5377°
Arg. of periapsis
162.052°
True anomaly
258.30157°
Mean anomaly
259.2336°
Eccentric anomaly
258.7674°
Mean motion
3.55842 °/min
Orbital period
101.17 mins
BSTAR
0.0012598
Loading maneuver chart data...
Computing Atmospheric mass density...

Documentation

Showing up to 5 results
|